User: anonymous   Login
Location: Charleston
(38.3500°N, 81.6330°W)
Time: 17:07:22
(UTC-04:00)
Language:

Cosmos 1812 Rocket - Orbit

View from above orbital plane
View from above orbital plane
View from above satellite
View from above satellite

Ground track
Ground track

The orbit data is extracted from the following two-line orbital elements,

1 17296U 87003B   18172.72258197 +.00000064 +00000-0 +48052-5 0  9997
2 17296 082.5300 039.2722 0020648 083.2777 277.0787 14.83232277676808
Epoch (UTC): 21 June 2018 17:20:31
Eccentricity: 0.0020648
inclination: 82.5300°
perigee height: 604 km
apogee height: 633 km
right ascension of ascending node: 39.2722°
argument of perigee: 83.2777°
revolutions per day: 14.83232277
mean anomaly at epoch: 277.0787°
orbit number at epoch: 67680

The dashed part of the orbit path shows where the satellite is in the earth's shadow,  

DLR